Regional Weather Roundup
Issued by NWS Huntsville, AL

Home | Current Version | Previous Version | Text Only | Print | Product List | Glossary On
Versions: 1 2 3 4 5 6 7 8 9 10 11 12 13 14 15 16 17 18 19 20 21 22 23 24 25 26 27 28 29 30 31 32 33 34 35 36 37 38 39 40 41 42 43 44 45 46 47 48 49 50
000
ASUS44 KHUN 301324
RWRHUN

WEATHER ROUNDUP FOR THE TENNESSEE VALLEY
NATIONAL WEATHER SERVICE HUNTSVILLE AL
800 AM CDT WED JUL 30 2014

ALZ001>004-301400-
NORTHWEST ALABAMA

CITY           SKY/WX    TMP DP  RH WIND       PRES   REMARKS
COURTLAND HCN    N/A     61 N/A N/A CALM        N/A
RUSSELLVILLE     N/A     59 N/A N/A MISG        N/A
SHOALS AIRPORT SUNNY     66  59  78 CALM      30.13R
SHOALS TVA RES   N/A     63 N/A N/A MISG        N/A
$$

ALZ005>007-016-301400-
NORTH CENTRAL ALABAMA

CITY           SKY/WX    TMP DP  RH WIND       PRES   REMARKS
CULLMAN AG STN   N/A     61 N/A N/A CALM        N/A
DECATUR AP     SUNNY     63  58  83 CALM      30.12R
HUNTSVILLE AP  MOSUNNY   63  58  83 CALM      30.11R
HUN NWS/UAH      N/A     67  57  68 N2          N/A
MERIDIANVILLE  SUNNY     61  55  82 CALM      30.12S
REDSTONE ARSN  SUNNY     64  59  82 CALM      30.12
VINEMONT AP    FAIR      63  58  85 CALM      30.13S
$$

ALZ008>010-301400-
NORTHEAST ALABAMA

CITY           SKY/WX    TMP DP  RH WIND       PRES   REMARKS
ALBERTVILLE    SUNNY     64  63  94 N8        30.10S
CROSSVILLE       N/A     61 N/A N/A CALM        N/A
FORT PAYNE     SUNNY     59  54  82 CALM      30.11R
SCOTTSBORO AP  SUNNY     63  57  82 NE6       30.12S
SCOTTSBORO HCN   N/A     59 N/A N/A MISG        N/A
VALLEY HEAD      N/A     55 N/A N/A MISG        N/A
$$

TNZ076-096-097-301400-
SOUTHEASTERN MIDDLE TENNESSEE

CITY           SKY/WX    TMP DP  RH WIND       PRES   REMARKS
FAYETTEVILLE   SUNNY     63  55  77 E10G22    30.12R
TULLAHOMA      SUNNY     64  55  72 E5        30.13R
WINCHESTER     SUNNY     63  55  77 CALM      30.13R
$$

...SURROUNDING SITES...

CITY           SKY/WX    TMP DP  RH WIND       PRES   REMARKS
ATLANTA        MOSUNNY   69  53  56 NE8       30.06R
ANNISTON       SUNNY     64  57  78 CALM      30.09R
BIRMINGHAM     PTSUNNY   66  56  70 CALM      30.12R
CHATTANOOGA    PTSUNNY   67  55  65 NE10      30.11S
CORINTH        FAIR      63  57  82 CALM      30.13R
DALTON         SUNNY     63  57  82 N5        30.10R
GADSDEN        SUNNY     64  55  72 N7        30.10R
GOLDEN TRNGL   SUNNY     61  55  82 NW3       30.12R
HALEYVILLE     FAIR      63  59  87 CALM      30.14S
JACKSON TN     SUNNY     64  58  80 CALM      30.13R
LEWISBURG      FAIR      62  57  83 CALM      30.12R
MEMPHIS        MOSUNNY   69  58  67 S3        30.12R
MURFREESBORO   FAIR      61  56  83 CALM      30.12R
NASHVILLE      PTSUNNY   63  58  83 CALM      30.13R
OXFORD MS      FAIR      66  59  77 CALM      30.15R
ROME           SUNNY     64  56  75 NE3       30.08R
SAVANNAH       SUNNY     63  63 100 CALM      30.13R
TUPELO         MOSUNNY   65  57  75 NE6       30.12R
TUSCALOOSA     MOSUNNY   65  57  75 N3        30.10R
$$

...GULF COAST WEATHER...

CITY           SKY/WX    TMP DP  RH WIND       PRES   REMARKS
GULFPORT       SUNNY     75  59  57 N6        30.06R
PASCAGOULA     SUNNY     71  59  65 N6        30.06S
MOBILE         MOSUNNY   70  59  68 NE8       30.07S
GULF SHORES      N/A     72  60  65 NE5       30.05S
PENSACOLA      MOSUNNY   73  59  61 N8        30.04R
DESTIN         SUNNY     75  62  64 N9        30.04R
PANAMA CITY    SUNNY     74  65  73 NE7       30.03R
APPALACHICOLA  SUNNY     75  67  76 N7        30.01R
$$



USA.gov is the U.S. government's official web portal to all federal, state and local government web resources and services.